Flag for Spain Weather past 2 weeks in Almería, Spain

Now
87 °F

Partly sunny.


Feels Like: 97 °F
Forecast: 72 / 88 °F
Wind: 9 mph from South

Location: Almeria / Aeropuerto

Current Time: Jul 31, 2015 at 3:31:54 PM

Latest Report: Jul 31, 2015 at 2:00 PM


Visibility: 19 mi

Pressure: 29.76 "Hg

Humidity: 68%

Dew point: 75 °F

Location of AlmeríaLocation

Historic Weather in Almería — Graph

°F

Almería temperature yesterday

Maximum temperature yesterday: 88 °F (at 6:00 PM)
Minimum temperature yesterday: 78 °F (at 7:00 AM)
Average temperature yesterday: 84 °F

Past Weeks' High & Low Weather Summary

 TemperatureHumidityPressure
High100 °F (Jul 17, 6:00 PM)89% (Jul 25, 6:00 AM)30.05 "Hg (Jul 25, 6:00 AM)
Low74 °F (Jul 28, 6:00 AM)20% (Jul 17, 12:00 PM)29.76 "Hg (Jul 31, 6:00 AM)
Average84 °F69%29.91 "Hg
* Reported Jul 16 2:00 PM — Jul 31 2:00 PM, Almería, Weather by CustomWeather, © 2015

Note: Actual official high and low records may vary slightly from our data, if they occured in-between our weather recording intervals... More about our weather records

Advertising

Almería weather history for previous 24 hours

 ConditionsComfort  
Time TempWeatherWind HumidityBarometerVisibility
2:00 PM
Fri, Jul 31
87 °FPartly sunny.9 mph68%29.76 "Hg19 mi
1:00 PM86 °FWarm.6 mph69%29.79 "HgN/A
12:00 PM87 °FWarm.5 mph71%29.77 "HgN/A
11:00 AM86 °FPartly sunny.8 mph59%29.76 "Hg19 mi
10:00 AM86 °FWarm.10 mph59%29.78 "HgN/A
9:00 AM85 °FWarm.1 mph63%29.79 "HgN/A
8:00 AM81 °FPartly sunny.2 mph74%29.80 "Hg19 mi
7:00 AM80 °FWarm.5 mph77%29.78 "HgN/A
6:00 AM81 °FWarm.3 mph74%29.76 "HgN/A
4:00 AM81 °FWarm.5 mph78%29.79 "HgN/A
3:00 AM81 °FWarm.3 mph79%29.81 "HgN/A
2:00 AM82 °FWarm.2 mph76%29.82 "HgN/A
1:00 AM82 °FWarm.1 mph80%29.84 "HgN/A
12:00 AM82 °FWarm.2 mph84%29.84 "HgN/A
10:00 PM
Thu, Jul 30
83 °FWarm.No wind75%29.79 "HgN/A
9:00 PM83 °FWarm.1 mph73%29.77 "HgN/A
8:00 PM86 °FPassing clouds.2 mph68%29.76 "Hg12 mi
7:00 PM87 °FWarm.7 mph65%29.77 "HgN/A
6:00 PM88 °FHot.8 mph64%29.79 "HgN/A
5:00 PM88 °FPassing clouds.8 mph64%29.79 "Hg12 mi
4:00 PM88 °FWarm.9 mph63%29.81 "HgN/A
3:00 PM88 °FWarm.10 mph64%29.82 "HgN/A
Weather by CustomWeather, © 2015

See weather overviewHow to use our weather pages